Regional Weather Roundup
Issued by NWS

Home | Current Version | Previous Version | Graphics & Text | Print | Product List | Glossary Off
Versions: 1 2 3 4 5 6 7 8 9 10 11 12 13 14 15 16 17 18 19 20 21 22 23 24 25 26 27 28 29 30 31 32 33 34 35 36 37 38 39 40 41 42 43 44 45 46 47 48 49 50

000
ASUS43 KTOP 102359
RWRKS

WEATHER ROUNDUP FOR KANSAS
NATIONAL WEATHER SERVICE GOODLAND KS
700 PM CDT THU JUL 10 2014

NOTE:  "FAIR" INDICATES FEW OR NO CLOUDS BELOW 12,000 FEET WITH NO
SIGNIFICANT WEATHER AND/OR OBSTRUCTIONS TO VISIBILITY.

KSZ001>006-013>018-027>032-041>047-110100-
NORTHWEST KANSAS

CITY           SKY/WX    TMP DP  RH WIND       PRES   REMARKS
GOODLAND       SUNNY     89  65  44 SE17G25   29.90F
6HR MIN TEMP:  81; 6HR MAX TEMP:  90;

HAYS           SUNNY     84  64  51 SE20      29.91F
HILL CITY      SUNNY     87  69  54 SE17G26   29.89S
6HR MIN TEMP:  85; 6HR MAX TEMP:  90;

RUSSELL        SUNNY     83  68  60 SE20      29.91F
6HR MIN TEMP:  81; 6HR MAX TEMP:  85;

$$

KSZ061>065-074>080-084>089-110100-
SOUTHWEST KANSAS

CITY           SKY/WX    TMP DP  RH WIND       PRES   REMARKS
DODGE CITY     SUNNY     88  68  51 SE20G29   29.90F
6HR MIN TEMP:  81; 6HR MAX TEMP:  90;

ELKHART          N/A     94  55  26 S12         N/A
GARDEN CITY    SUNNY     93  58  30 S15G21    29.87F
6HR MIN TEMP:  80; 6HR MAX TEMP:  95;

GREAT BEND     SUNNY     82  70  65 SE20G25   29.91S
LIBERAL        SUNNY     95  54  24 S18       29.91R
$$

KSZ066>073-081>083-090>101-110100-
SOUTHEAST KANSAS

CITY           SKY/WX    TMP DP  RH WIND       PRES   REMARKS
CHANUTE        SUNNY     81  64  56 SE12      30.00F
6HR MIN TEMP:  77; 6HR MAX TEMP:  83;

COFFEYVILLE    SUNNY     80  68  66 S7        30.00S
6HR MIN TEMP:  78; 6HR MAX TEMP:  82;

HUTCHINSON     MOSUNNY   83  69  62 SE16G22   29.95F
6HR MIN TEMP:  81; 6HR MAX TEMP:  85;

MEDICINE LODGE   N/A     82  70  66 SE12G18   29.92F
NEWTON         PTSUNNY   81  64  57 SE15      30.01S
PARSONS        SUNNY     80  66  62 S6        30.01F
6HR MIN TEMP:  75; 6HR MAX TEMP:  83;

WICHITA INTL   MOSUNNY   80  66  62 SE17      29.96F
6HR MIN TEMP:  79; 6HR MAX TEMP:  84;

WICHITA JABRA  SUNNY     80  67  64 SE15      29.97S
6HR MIN TEMP:  79; 6HR MAX TEMP:  83;

WINFIELD       SUNNY     78  68  71 SE14      29.98F
6HR MIN TEMP:  76; 6HR MAX TEMP:  82;

$$

KSZ007>012-019>026-033>040-048>060-102>105-110100-
NORTHEAST KANSAS

CITY           SKY/WX    TMP DP  RH WIND       PRES   REMARKS
CONCORDIA      SUNNY     84  64  50 SE15G25   29.93F
6HR MIN TEMP:  81; 6HR MAX TEMP:  86;

EMPORIA        SUNNY     81  63  54 SE14G22   30.00S
6HR MIN TEMP:  81; 6HR MAX TEMP:  84;

LAWRENCE       SUNNY     84  66  54 S14       30.01S
6HR MIN TEMP:  81; 6HR MAX TEMP:  87;

MANHATTAN      SUNNY     85  62  46 SE15G22   29.96F
6HR MIN TEMP:  85; 6HR MAX TEMP:  89;

OLATHE IND     PTSUNNY   81  68  64 SE15      30.03S
6HR MIN TEMP:  81; 6HR MAX TEMP:  85;

OLATHE EXE     MOSUNNY   79  66  64 S13       30.03R
6HR MIN TEMP:  79; 6HR MAX TEMP:  82;

SALINA         SUNNY     87  67  51 SE18      29.94S
6HR MIN TEMP:  84; 6HR MAX TEMP:  90;

TOPEKA BILLARD MOSUNNY   84  65  52 SE10G20   30.00R
6HR MIN TEMP:  83; 6HR MAX TEMP:  87;

TOPEKA FORBES  SUNNY     84  64  50 SE13      30.01R
6HR MIN TEMP:  83; 6HR MAX TEMP:  87;

$$


USA.gov is the U.S. government's official web portal to all federal, state and local government web resources and services.